AirNav   Air Wisconsin pilot careers
 
 595 users online  

2J3 Louisville Municipal Airport
Louisville, Georgia, USA

GOING TO LOUISVILLE?


FAA INFORMATION EFFECTIVE 29 MARCH 2018

Location

FAA Identifier: 2J3
Lat/Long: 32-59-09.4000N / 082-23-05.3000W
32-59.156667N / 082-23.088333W
32.9859444 / -82.3848056
(estimated)
Elevation: 327.9 ft. / 99.9 m (surveyed)
Variation: 03W (1985)
From city: 2 miles SE of LOUISVILLE, GA
Time zone: UTC -4 (UTC -5 during Standard Time)
Zip code: 30434

Airport Operations

Airport use: Open to the public
Control tower: no
ARTCC: ATLANTA CENTER
FSS: MACON FLIGHT SERVICE STATION
NOTAMs facility: MCN (NOTAM-D service available)
Attendance: UNATNDD
Wind indicator: lighted
Segmented circle: yes
Lights: ACTVT MIRL RY 13/31 AND PAPI RY 13 & 31 - CTAF.
Beacon: white-green (lighted land airport)
Operates sunset to sunrise.

Airport Communications

CTAF: 122.9
WX AWOS-3PT: 119.35 (478-625-8303)
AUGUSTA APPROACH: 126.8
AUGUSTA DEPARTURE: 126.8

Nearby radio navigation aids

VOR radial/distance  VOR name  Freq  Var
DBNr047/33.9DUBLIN VORTAC113.1005W

 
NDB name  Hdg/Dist  Freq  Var  ID
EMANUEL COUNTY016/19.530906WEEX . . -..-
MILLEN290/21.720505WLNH .-.. -. ....
EMORY218/34.638504WEMR . -- .-.

Airport Services

Fuel available: 100LL JET-A
Parking: hangars and tiedowns
Airframe service: MAJOR
Powerplant service: MAJOR
Bottled oxygen: NONE
Bulk oxygen: NONE

Runway Information

Runway 13/31

Dimensions: 5002 x 100 ft. / 1525 x 30 m
Surface: asphalt, in good condition
Weight bearing capacity: 
Single wheel: 26.0
Runway edge lights: medium intensity
RUNWAY 13  RUNWAY 31
Latitude: 32-59.384502N32-58.927245N
Longitude: 082-23.495093W082-22.680707W
Elevation: 327.9 ft.293.6 ft.
Gradient: 0.6%0.7% UP
Traffic pattern: leftleft
Markings: nonprecision, in fair conditionnonprecision, in fair condition
Visual slope indicator: 2-light PAPI on left (3.83 degrees glide path)2-light PAPI on left (3.65 degrees glide path)
Touchdown point: yes, no lightsyes, no lights
Obstructions: 39 ft. trees, 1526 ft. from runway, 350 ft. right of centerline, 34:1 slope to clearnone

Airport Ownership and Management from official FAA records

Ownership: Publicly-owned
Owner: CITY OF LOUISVILLE
CITY HALL, PO BOX 527
LOUISVILLE, GA 30434
Phone 478-625-3166
Manager: RICHARD SAPP
PO BOX 527
LOUISVILLE, GA 30434
Phone 478-625-3166

Airport Operational Statistics

Aircraft based on the field: 17
Single engine airplanes: 12
Ultralights: 5
    
Aircraft operations: avg 20/day *
68% local general aviation
32% transient general aviation
* for 12-month period ending 31 December 2016

Instrument Procedures

NOTE: All procedures below are presented as PDF files. If you need a reader for these files, you should download the free Adobe Reader.

NOT FOR NAVIGATION. Please procure official charts for flight.
FAA instrument procedures published for use from 29 March 2018 at 0901Z to 26 April 2018 at 0900Z.

 
IAPs - Instrument Approach Procedures
RNAV (GPS) RWY 13   download (190KB)
RNAV (GPS) RWY 31   download (184KB)
NOTE: Special Take-Off Minimums/Departure Procedures apply   download (665KB)

Other nearby airports with instrument procedures:

KBXG - Burke County Airport (20 nm E)
2J5 - Millen Airport (22 nm E)
KSBO - East Georgia Regional Airport (23 nm S)
KOKZ - Kaolin Field Airport (23 nm W)
KAGS - Augusta Regional Airport at Bush Field (31 nm NE)
 
Loc | Ops | Rwys | IFR | FBO | Links
Com | Nav | Svcs | Stats | Notes

AirNav Hotels Sweepstakes
 
Area around 2J3 (Louisville Municipal Airport)
 
Road maps at: MapQuest Bing Google
 
Aerial photo
WARNING: Photo may not be current or correct
Aerial photo of 2J3 (Louisville Municipal Airport)
Do you have a better or more recent aerial photo of Louisville Municipal Airport that you would like to share? If so, please send us your photo.

 
Sectional chart

 
Airport distance calculator
Flying to Louisville Municipal Airport? Find the distance to fly.

From to 2J3

Sunrise and sunset
Times for 21-Apr-2018
 Local
(UTC-4)
 Zulu
(UTC)
Morning civil twilight06:2810:28
Sunrise06:5410:54
Sunset20:0300:03
Evening civil twilight20:2900:29

Current date and time
Zulu (UTC)  21-Apr-2018 04:46:00
Local (UTC-4)  21-Apr-2018 00:46:00
 
METAR
KSBO 
23nm S 
210435Z AUTO 12005KT 10SM CLR 12/04 A3031 RMK AO2
KAGS 
31nm NE 
210353Z AUTO 00000KT 10SM CLR 07/04 A3031 RMK AO2 SLP262 T00670044
KHQU 
33nm N 
210435Z AUTO 00000KT 10SM CLR 06/04 A3035 RMK AO2 T00590044
KDNL 
34nm NE 
210353Z AUTO 13004KT 10SM CLR 13/01 A3030 RMK AO2 SLP260 T01330006
KDBN 
39nm SW 
210435Z AUTO 00000KT 10SM CLR 05/04 A3031 RMK AO2
KMLJ 
44nm W 
210435Z AUTO 00000KT 10SM CLR 08/05 A3029 RMK AO2
KTBR 
45nm SE 
210435Z AUTO 00000KT 10SM CLR 09/05 A3031 RMK AO2 T00850052
KJYL 
45nm SE 
210436Z AUTO 00000KT 10SM CLR 08/08 A3032 RMK AO2
TAF
KAGS 
31nm NE 
210232Z 2103/2124 VRB02KT P6SM SKC FM211400 09009KT P6SM SKC FM211800 10007KT P6SM FEW050
KDNL 
34nm NE 
210232Z 2103/2124 03007KT P6SM SKC FM211400 09010KT P6SM SKC FM211800 10009KT P6SM FEW050
NOTAMs
Click for the latest NOTAMs
NOTAMs are issued by the DoD/FAA and will open in a separate window not controlled by AirNav.

 

 
 

FBO, Fuel Providers, and Aircraft Ground Support

  
 Business Name 
 
 Contact 
 
 Services / Description 
 
Fuel Prices
 
Comments
  
City of Louisville 478-625-3166
no information available

If you are affiliated with City of Louisville and would like to show here your services, contact info, web link, logo, and more, click here
100LL Jet A
SS $4.25 $3.29 
 Updated 09-Apr-2018
 
   write
SS=Self service
Update Fuel Prices
 

Aviation Businesses, Services, and Facilities

  
 Business Name 
 
 Contact 
 
 Services / Description 
 
Distance
 
Comments
  
 Watson Aero LLC
706-550-8628
[email]
Aircraft parking (ramp or tiedown), Passenger terminal and lounge, Aircraft maintenance, Aircraft modifications, Aircraft cleaning / washing / detailing

More info about Watson Aero LLC
on airport  
   write
 

Would you like to see your business listed on this page?

 If your business provides an interesting product or service to pilots, flight crews, aircraft, or users of the Louisville Municipal Airport, you should consider listing it here.  To start the listing process, click on the button below
 
Add a business
 

Other Pages about Louisville Municipal Airport

Update a link
 
Copyright © AirNav, LLC. All rights reserved. Privacy Policy  Contact